Flag for Grenada

Past Weather in Saint George's, Grenada — Yesterday and Last 2 Weeks

Now
82 °F

Passing clouds.


Feels Like: 89 °F
Forecast: 80 / 75 °F
Wind: 14 mph from East

Location: Point Salines Airport

Current Time: Jul 10, 2020 at 10:50:29 pm

Latest Report: Jul 10, 2020 at 9:00 pm


Visibility: N/A

Pressure: 29.95 "Hg

Humidity: 79%

Dew Point: 75 °F

Location of Saint George'sLocation

Past Weather in Saint George's — Graph

°F

Saint George's Temperature Yesterday

Maximum temperature yesterday: 88 °F (at 1:00 pm)
Minimum temperature yesterday: 79 °F (at 6:00 am)
Average temperature yesterday: 83 °F

High & Low Weather Summary for the Past Weeks

 TemperatureHumidityPressure
High90 °F (Jul 2, 2:00 pm)94% (Jun 25, 9:00 pm)29.98 "Hg (Jun 25, 9:00 pm)
Low77 °F (Jun 30, 6:00 pm)21% (Jul 6, 6:00 pm)29.86 "Hg (Jun 26, 6:00 pm)
Average83 °F79%29.91 "Hg
* Reported Jun 25 9:00 pm — Jul 10 9:00 pm, Saint George's. Weather by CustomWeather, © 2020

Note: Actual official high and low records may vary slightly from our data, if they occured in-between our weather recording intervals... More about our weather records

Saint George's Weather History for the Previous 24 Hours

Scroll right to see more
 ConditionsComfort  
Time TempWeatherWind HumidityBarometerVisibility
9:00 pm
Fri, Jul 10
82 °FPassing clouds.14 mph79%29.95 "HgN/A
8:00 pm82 °FPassing clouds.20 mph79%29.92 "HgN/A
7:00 pm82 °FPassing clouds.25 mph79%29.92 "HgN/A
6:00 pm84 °FPassing clouds.17 mph74%29.89 "HgN/A
5:00 pm86 °FPassing clouds.21 mph66%29.89 "HgN/A
4:00 pm88 °FPassing clouds.22 mph66%29.89 "HgN/A
3:00 pm88 °FPassing clouds.20 mph66%29.89 "HgN/A
2:30 pm88 °FPassing clouds.21 mph66%29.92 "HgN/A
1:00 pm88 °FPassing clouds.21 mph66%29.95 "HgN/A
12:00 pm88 °FPassing clouds.20 mph66%29.98 "HgN/A
11:00 am88 °FPassing clouds.17 mph66%29.98 "HgN/A
10:00 am88 °FPassing clouds.17 mph70%29.98 "HgN/A
9:00 am86 °FPassing clouds.17 mph70%29.98 "HgN/A
8:00 am84 °FPassing clouds.17 mph79%29.98 "HgN/A
6:00 am79 °FScattered clouds.9 mph94%29.95 "HgN/A
5:00 am79 °FPassing clouds.9 mph89%29.92 "HgN/A
4:00 am82 °FPassing clouds.12 mph79%29.92 "HgN/A
3:00 am82 °FPassing clouds.12 mph79%29.92 "HgN/A
2:00 am82 °FPassing clouds.18 mph79%29.92 "HgN/A
1:00 am82 °FPassing clouds.18 mph84%29.95 "HgN/A
12:00 am82 °FPassing clouds.14 mph79%29.95 "HgN/A
11:00 pm
Thu, Jul 9
82 °FPassing clouds.14 mph79%29.95 "HgN/A
10:00 pm82 °FPassing clouds.22 mph79%29.95 "HgN/A
Weather by CustomWeather, © 2020

See weather overview